Home > Weather > Weil am Rhein > Past weeks

Flag for Germany Weather for the Past 2 Weeks in Weil am Rhein, Baden-Württemberg, Germany

Now
41 °F

Overcast.


Feels Like: 39 °F
Forecast: 42 / 48 °F
Wind: 3 mph from Southeast

Location: Bale-Mulhouse

Current Time: Feb 13, 2016 at 10:08:08 AM

Latest Report: Feb 13, 2016 at 9:00 AM


Visibility: 13 mi

Pressure: 29.38 "Hg

Humidity: 94%

Dew point: 40 °F

Location of Weil am RheinLocation

Historic Weather in Weil am Rhein — Graph

°F

Weil am Rhein Temperature Yesterday

Maximum temperature yesterday: 43 °F (at 12:00 PM)
Minimum temperature yesterday: 34 °F (at 8:00 AM)
Average temperature yesterday: 38 °F

High & Low Weather Summary for the Past Weeks

 TemperatureHumidityPressure
High57 °F (Feb 6, 4:00 PM)98% (Jan 29, 10:00 PM)30.52 "Hg (Jan 29, 10:00 PM)
Low32 °F (Feb 11, 2:00 AM)48% (Feb 11, 4:00 PM)29.26 "Hg (Feb 9, 4:00 PM)
Average44 °F80%30.00 "Hg
* Reported Jan 29 8:00 AM — Feb 13 8:00 AM, Weil am Rhein, Weather by CustomWeather, © 2016

Note: Actual official high and low records may vary slightly from our data, if they occured in-between our weather recording intervals... More about our weather records

Advertising

Weil am Rhein Weather History for the Previous 24 Hours

 ConditionsComfort  
Time TempWeatherWind HumidityBarometerVisibility
8:00 AM
Sat, Feb 13
40 °FOvercast.3 mph96%29.38 "Hg12 mi
7:00 AM41 °FLight rain. Overcast.3 mph95%29.38 "Hg9 mi
6:00 AM39 °FLow clouds.5 mph98%29.41 "Hg4 mi
5:00 AM39 °FLow clouds.5 mph98%29.41 "Hg3 mi
4:00 AM39 °FLight rain. Low clouds.6 mph98%29.41 "Hg2 mi
1:00 AM38 °FLight rain. Overcast.3 mph96%29.38 "Hg3 mi
11:00 PM
Fri, Feb 12
38 °FLight rain. Low clouds.3 mph94%29.35 "Hg5 mi
10:00 PM38 °FLight rain. Overcast.5 mph92%29.35 "Hg7 mi
9:00 PM38 °FLight rain. Overcast.7 mph87%29.35 "Hg12 mi
8:00 PM38 °FLight rain. Overcast.12 mph90%29.35 "Hg12 mi
7:00 PM37 °FLight rain. Overcast.10 mph92%29.35 "Hg10 mi
6:00 PM37 °FLight rain. Low clouds.12 mph93%29.38 "Hg5 mi
5:00 PM37 °FLight rain. Overcast.12 mph92%29.38 "Hg4 mi
4:00 PM38 °FLight rain. Overcast.12 mph90%29.38 "Hg4 mi
3:00 PM38 °FLight rain. Overcast.10 mph89%29.41 "Hg4 mi
2:00 PM41 °FLight rain. Overcast.14 mph77%29.41 "Hg9 mi
1:00 PM42 °FOvercast.14 mph69%29.47 "Hg9 mi
12:00 PM43 °FPartly sunny.14 mph69%29.50 "Hg9 mi
11:00 AM42 °FPartly sunny.12 mph75%29.57 "Hg9 mi
10:00 AM39 °FScattered clouds.12 mph81%29.60 "Hg7 mi
Weather by CustomWeather, © 2016

See weather overviewHow to use our weather pages